Wind_Speed
14 13 12 11 10 10 9 9 9 8 9 10 11 12 13 14 15 16 18 19 20 22 23 25 27 29 30 32 33 35 37 39 41 43 45 47 50 53 56 60 64 69 75 80 87 93 100 105 109 113 118 122 124 126 127 128 128 126 124 122 117 111 109 107 106 105 102 100 100 102 102 102 101 98 94 91 88 86 85 83 81 81 80 81 81 81 81 80
13 13 11 10 9 8 8 7 7 6 5 5 6 6 7 8 8 9 10 11 13 15 17 18 20 22 24 25 26 28 30 32 34 36 38 40 42 45 48 52 56 60 64 70 76 82 88 94 98 103 108 113 117 122 126 129 130 131 131 128 122 118 115 113 112 110 108 106 104 104 104 103 102 100 96 93 90 88 87 85 83 83 83 83 83 83 82 81
13 12 10 9 8 7 6 5 5 5 4 4 3 2 2 2 3 4 5 6 8 10 12 13 15 17 19 20 21 23 24 26 28 30 33 35 38 41 44 48 51 55 59 63 69 75 80 85 89 93 97 101 106 112 118 123 126 129 132 130 127 125 123 121 120 117 114 113 111 109 108 107 106 103 100 96 93 91 89 87 86 85 85 85 85 85 83 82
11 10 9 8 6 5 4 3 3 3 2 2 2 1 1 1 2 3 4 5 7 8 9 11 12 13 14 15 17 18 20 22 24 27 30 32 35 38 42 45 48 52 56 60 64 70 76 80 83 85 87 91 95 101 106 112 116 121 125 127 127 128 129 128 126 123 120 118 117 116 114 113 112 109 105 101 97 94 91 90 89 89 89 88 88 86 83 82
9 8 7 7 6 5 4 4 3 3 2 2 1 1 2 3 5 6 7 8 9 10 12 13 13 14 14 15 15 16 17 20 22 24 27 30 33 35 39 42 45 49 53 57 60 65 70 75 79 82 82 83 86 90 96 101 105 110 114 118 122 126 128 130 130 130 127 125 122 121 119 118 117 115 112 108 103 99 96 94 93 92 92 91 89 86 83 83
7 6 6 6 5 5 5 5 5 5 5 5 5 5 6 7 9 10 12 12 13 14 15 16 17 17 18 19 18 18 18 20 22 25 27 29 32 34 37 40 43 47 52 55 58 61 65 68 72 77 80 81 81 82 86 91 96 99 103 107 113 118 123 127 130 132 132 131 128 125 123 122 121 119 117 114 110 106 102 99 96 95 93 92 90 86 83 84
5 5 5 5 5 5 6 6 6 7 8 9 10 10 11 12 13 15 16 17 18 18 19 20 21 21 22 23 23 22 22 23 25 27 29 31 34 37 38 41 43 47 51 54 57 60 63 65 67 70 74 77 79 79 79 82 87 91 94 98 102 108 115 121 126 130 132 133 132 129 127 125 125 123 122 119 116 112 108 104 101 98 96 94 91 87 85 85
5 5 5 6 6 7 8 8 8 9 11 12 13 14 14 15 16 18 19 21 22 23 23 24 25 25 25 26 27 27 27 27 28 30 32 35 38 40 42 44 45 47 51 54 57 60 62 63 64 65 67 70 73 76 76 76 79 83 86 90 94 99 105 112 119 125 130 132 133 132 130 128 127 127 125 123 121 118 114 110 106 102 99 96 93 90 87 88
6 7 7 8 9 9 10 11 11 12 13 14 15 16 17 17 18 19 21 22 24 25 26 27 28 29 29 29 30 31 32 32 32 33 36 38 40 43 46 48 49 50 52 55 57 60 61 62 63 63 63 64 67 71 72 74 74 75 79 83 87 92 97 103 110 118 125 130 132 133 132 130 129 129 127 126 125 122 119 116 111 107 102 98 95 94 91 91
7 8 9 10 11 12 12 13 14 15 16 16 17 18 19 19 20 21 22 23 25 27 28 29 31 32 33 33 33 34 35 36 37 37 39 42 43 45 48 50 52 53 54 57 58 59 60 60 60 60 60 60 62 64 66 69 70 71 74 77 82 86 91 96 102 110 117 124 130 133 133 132 131 129 128 127 127 126 124 121 117 112 106 101 98 97 96 96
8 9 10 12 12 13 14 15 16 18 18 19 20 21 21 22 23 23 24 25 27 28 30 31 32 34 35 36 36 37 37 38 40 40 42 45 46 47 50 52 55 56 57 59 60 61 61 60 58 57 56 57 58 59 60 62 65 68 70 72 76 81 86 90 96 103 110 117 125 130 133 133 132 129 127 127 127 127 126 124 121 117 111 105 102 101 100 100
10 11 12 13 14 15 16 17 18 20 21 22 22 23 24 24 26 26 27 28 29 30 31 32 33 35 37 38 39 39 40 40 42 43 44 47 49 49 51 54 56 59 60 61 62 63 62 60 57 54 53 53 54 55 55 57 59 63 66 69 72 76 81 85 91 97 103 111 118 125 130 131 131 129 127 127 127 127 127 127 125 121 116 110 106 104 103 103
13 14 14 15 17 17 18 19 20 21 22 23 24 25 26 27 28 29 29 30 31 32 33 34 34 36 37 39 40 41 42 42 43 45 46 48 50 51 53 55 57 60 62 63 63 64 63 61 57 54 51 49 49 51 52 53 55 58 61 65 68 72 76 80 86 92 98 105 111 117 123 126 128 129 129 128 128 127 126 126 126 123 118 113 109 107 106 106
16 16 17 18 18 19 20 20 21 23 23 24 25 26 27 28 29 30 31 31 33 34 34 35 36 37 38 39 41 43 44 45 45 46 48 49 50 52 54 56 58 60 63 65 65 64 63 61 57 54 51 47 45 46 48 49 52 54 56 60 65 69 72 76 82 87 93 99 104 110 114 118 124 128 131 131 130 128 126 126 125 123 120 116 112 110 109 108
19 19 19 20 20 21 21 22 23 25 25 26 26 27 27 28 29 31 32 32 34 35 36 37 38 38 39 40 41 44 45 46 47 48 49 51 52 53 55 57 59 61 63 66 66 65 64 61 58 54 51 47 43 41 43 45 48 50 53 56 61 65 68 72 78 83 88 93 98 104 106 110 119 126 129 132 132 131 128 126 125 123 121 117 114 113 111 110
21 21 21 22 22 22 23 24 25 27 28 28 28 29 29 29 30 32 32 33 34 35 36 37 39 39 40 41 42 44 45 46 48 49 50 52 53 55 57 59 60 61 63 66 67 66 65 63 59 55 52 48 44 39 37 39 43 46 49 53 57 62 65 68 73 78 84 88 92 98 100 103 113 121 126 131 133 133 130 128 126 124 122 119 117 115 113 112
24 24 24 23 24 24 24 25 27 29 30 31 31 31 31 31 32 33 34 34 35 36 37 38 39 40 41 41 42 44 45 47 48 50 51 52 54 56 57 59 62 63 63 65 67 67 65 64 62 57 53 49 44 39 34 33 36 40 44 48 53 58 62 65 69 75 79 84 88 91 94 98 107 115 121 127 132 134 133 130 128 125 123 121 118 117 115 114
27 27 27 26 27 27 27 27 29 31 32 34 34 34 34 34 34 35 35 36 37 37 38 39 40 41 42 43 43 44 45 47 49 50 52 53 54 56 58 60 62 64 64 65 67 68 67 66 65 60 55 51 46 40 34 29 30 34 38 42 47 54 59 62 66 70 74 79 83 86 89 94 103 110 116 122 128 132 133 133 131 127 124 122 121 119 117 116
30 30 30 30 30 30 29 29 30 32 34 35 37 37 37 37 37 37 37 37 38 38 39 39 40 42 43 43 44 45 46 47 49 50 52 53 54 56 58 60 62 64 65 65 66 68 67 66 66 63 59 54 49 43 37 30 26 27 31 36 40 46 53 59 63 66 70 74 78 81 84 89 98 106 111 116 122 128 132 133 133 130 127 125 123 121 120 118
34 33 33 33 34 33 32 32 33 34 34 36 38 39 39 40 40 40 39 38 39 39 40 40 40 42 43 44 44 45 46 47 48 50 52 54 55 56 57 59 61 64 65 66 66 68 68 67 66 65 63 58 53 47 41 35 28 24 25 29 33 38 44 52 58 63 67 71 74 77 79 83 91 99 105 110 115 121 127 131 133 132 130 127 125 124 122 121
37 37 37 37 37 37 36 36 36 36 35 36 39 41 42 42 42 43 42 40 40 40 41 41 41 42 43 44 45 46 46 47 49 50 52 54 55 56 57 58 60 63 65 66 67 68 68 67 66 66 65 62 57 51 46 39 33 27 23 23 26 31 36 42 50 56 63 68 71 73 76 79 85 92 98 104 108 113 119 125 130 131 131 130 128 126 124 123
41 41 40 40 40 40 40 39 39 39 37 37 39 42 44 44 45 45 43 42 41 41 41 42 42 42 43 44 45 46 47 48 49 50 51 53 55 55 56 58 59 61 64 66 67 67 68 68 66 66 65 64 61 55 50 44 38 31 26 23 22 25 29 34 40 48 55 62 67 71 72 74 80 87 92 98 104 109 114 119 124 128 130 130 130 129 128 126
44 44 44 43 42 42 42 41 41 40 39 39 39 41 45 47 47 46 45 43 42 41 41 42 42 42 43 45 46 46 47 48 49 50 51 52 53 55 56 57 58 60 62 65 66 67 68 68 67 66 65 65 63 58 54 49 43 37 31 26 23 22 24 27 32 39 47 54 61 66 66 69 76 81 86 91 98 104 110 113 117 122 125 128 130 132 131 129
47 47 47 46 45 44 43 42 41 40 40 41 41 40 44 47 48 47 46 44 42 42 42 42 43 43 43 45 46 47 47 48 49 49 50 51 52 53 55 56 57 59 61 63 65 67 68 68 68 67 65 65 64 61 56 52 48 43 37 31 26 23 23 23 25 30 37 45 53 60 61 64 71 76 80 85 90 96 104 110 112 116 120 124 127 130 132 132
50 49 49 48 47 46 45 43 42 42 43 44 44 42 43 47 49 47 45 43 41 42 42 42 43 43 43 44 46 47 47 48 49 49 50 50 51 52 53 55 56 58 59 61 64 66 67 68 68 68 66 65 65 63 60 56 51 47 42 36 31 26 23 23 23 24 28 35 43 53 56 58 67 73 75 80 85 89 98 105 109 111 114 118 121 125 129 133
52 52 52 51 49 49 47 45 43 44 46 47 48 47 46 48 50 47 43 41 40 42 43 43 44 44 43 43 45 46 47 48 48 49 49 50 50 50 52 53 55 56 58 60 62 64 65 67 67 67 67 66 65 65 63 60 55 51 46 41 37 31 27 23 22 22 23 27 33 42 46 50 62 70 72 78 83 85 91 98 103 107 111 113 115 119 124 129
53 52 53 53 52 51 49 46 45 46 49 51 52 52 50 51 51 47 42 41 41 42 43 44 44 44 44 43 44 46 47 48 48 48 49 49 49 49 50 52 53 55 56 58 60 62 63 65 66 66 66 66 65 65 65 63 60 57 52 46 41 37 32 27 23 21 21 23 25 30 35 41 53 64 71 78 81 81 85 90 95 100 106 110 112 115 119 124
54 53 53 53 52 51 50 48 48 48 51 54 55 55 54 53 52 49 44 42 43 43 44 45 46 46 46 44 44 45 46 47 48 48 48 48 49 49 49 50 52 53 55 56 58 60 61 63 65 65 65 65 65 65 65 65 63 61 58 53 47 42 37 32 27 23 20 20 21 24 27 33 43 58 69 74 76 77 79 83 88 94 99 105 109 112 115 118
58 56 56 55 54 53 51 50 50 50 53 57 57 56 56 55 54 52 48 45 45 45 46 46 47 48 48 46 45 46 47 47 47 47 47 47 47 48 49 49 50 52 53 55 56 58 60 61 63 64 64 64 65 65 64 65 64 62 60 59 55 49 44 38 32 27 22 19 19 21 23 27 34 48 61 66 67 70 74 77 82 88 93 98 102 106 110 113
61 60 60 59 58 58 56 55 53 51 52 57 59 58 57 57 56 54 51 48 46 47 48 48 48 49 50 49 47 47 48 48 47 47 46 46 46 47 48 49 49 50 51 53 54 56 57 59 61 62 63 64 64 64 64 64 65 63 61 60 58 56 52 45 39 33 28 22 19 19 21 24 29 36 47 56 60 63 67 72 77 81 86 91 94 98 102 107
63 62 61 61 61 61 60 59 58 55 54 57 59 59 59 59 58 56 54 51 48 49 51 50 50 51 52 52 50 48 49 49 48 47 46 45 45 46 47 48 49 49 50 51 52 54 55 57 59 60 62 63 63 63 64 63 64 64 63 60 59 58 56 52 47 41 36 30 24 20 19 21 24 29 35 43 51 55 60 66 72 76 80 84 88 92 96 101
65 64 63 62 62 62 61 61 61 60 59 59 60 61 61 60 60 59 56 53 50 51 53 52 52 53 53 54 52 50 50 50 49 47 46 45 45 45 46 47 47 48 48 49 50 52 53 54 56 58 59 61 62 62 63 63 63 64 64 62 59 58 58 56 53 48 43 39 34 28 23 21 20 23 27 32 40 47 52 57 64 70 74 78 83 87 92 97
67 66 65 64 63 63 62 61 62 62 63 63 63 64 64 62 61 60 57 54 51 52 54 53 53 53 54 54 54 51 50 51 50 48 46 45 44 44 45 46 46 47 47 47 48 49 51 52 53 55 56 58 60 60 61 62 62 63 64 64 62 59 57 57 56 54 50 45 41 37 33 28 24 22 21 24 30 37 43 49 54 60 67 72 77 82 87 92
69 69 68 66 65 64 63 62 62 63 64 64 64 64 64 63 62 61 58 55 52 52 53 53 53 53 54 54 55 53 51 51 51 49 47 45 44 44 44 45 45 45 45 46 46 47 49 50 51 52 54 55 57 58 59 60 60 61 62 63 64 63 59 56 55 55 54 51 46 41 37 34 30 25 22 21 23 28 34 40 46 51 58 64 71 77 82 86
69 70 70 69 68 66 64 63 63 64 63 63 62 62 62 63 63 61 59 56 53 52 52 52 53 53 54 54 54 54 52 52 52 51 48 46 45 44 44 44 44 45 44 44 44 45 47 48 49 49 51 53 54 56 57 58 59 59 60 61 62 64 63 61 57 55 54 54 51 46 39 35 32 27 23 21 21 24 28 32 37 43 49 55 62 70 76 82
68 69 70 70 70 69 67 65 64 65 64 63 62 61 62 63 63 62 60 58 55 53 52 53 53 53 53 53 54 54 53 52 52 51 49 47 45 44 44 43 43 44 44 43 42 43 45 46 47 47 48 50 52 53 55 56 57 57 58 59 60 61 63 63 62 59 57 55 55 54 50 43 37 31 26 21 19 21 25 28 32 36 40 46 53 60 67 75
70 69 69 70 70 70 70 69 67 67 66 64 62 62 63 63 63 62 61 59 57 55 54 54 54 52 52 53 53 53 52 52 53 52 50 48 46 45 44 43 43 43 43 43 41 41 42 44 45 46 46 48 49 51 53 54 55 56 56 57 58 59 60 61 62 62 61 59 58 59 58 55 49 42 35 28 21 19 20 23 26 30 33 38 44 50 57 65
72 71 70 70 70 70 70 70 69 69 68 67 64 63 63 63 64 64 62 61 59 57 56 56 55 52 52 52 52 52 51 52 52 52 51 48 46 45 44 43 43 42 42 43 42 40 40 42 44 45 45 46 47 49 51 52 53 54 55 55 57 58 59 59 59 59 59 59 59 59 59 59 57 52 44 36 29 23 21 20 21 23 26 31 36 41 47 55
74 73 72 71 71 70 70 70 69 69 69 68 67 66 65 64 65 64 64 63 61 59 59 58 56 53 52 52 52 51 50 51 52 52 51 50 47 46 45 44 42 42 41 42 42 41 39 39 42 44 44 44 45 47 48 50 51 53 54 54 55 56 58 58 58 58 57 56 56 57 58 59 59 58 53 46 39 32 28 24 22 19 19 23 30 35 41 47
77 75 74 74 73 72 71 70 69 68 68 68 68 68 67 66 66 65 65 64 63 61 60 60 58 54 52 51 51 50 50 50 51 51 52 51 48 46 45 44 43 42 41 41 42 42 41 38 39 42 43 43 44 45 46 48 49 50 52 52 53 53 55 58 59 59 58 56 55 54 55 56 58 59 59 55 49 42 36 31 27 23 19 18 23 30 36 41
78 77 76 76 76 74 73 70 68 68 67 67 69 69 68 67 66 66 66 66 64 62 61 61 60 56 52 51 51 50 50 50 50 50 52 52 49 47 46 44 43 42 41 40 40 41 41 40 38 38 41 43 43 43 44 46 47 48 49 51 51 51 52 54 57 59 60 59 58 56 55 56 57 59 60 60 56 50 43 37 32 29 26 22 19 23 30 36
78 77 77 78 78 76 75 72 69 68 67 67 69 70 69 68 66 66 66 67 66 64 63 62 60 57 53 51 51 51 50 51 51 50 51 51 49 47 47 45 43 42 42 41 40 40 40 41 41 39 38 40 42 42 42 43 45 46 47 49 50 50 51 51 53 55 58 60 60 60 59 59 58 59 60 61 60 56 51 44 38 32 29 26 23 20 24 30
77 77 77 78 77 77 76 73 71 70 69 70 71 70 69 69 67 67 66 66 66 65 64 63 61 58 55 52 52 51 51 51 52 50 50 50 49 47 47 46 43 42 42 41 41 39 38 38 40 41 39 38 40 42 42 43 43 44 45 46 47 49 50 50 51 53 56 59 61 62 62 62 61 60 60 60 60 59 56 50 42 35 30 27 25 22 20 24
79 78 76 76 75 75 74 73 73 72 72 72 71 70 70 70 68 68 68 67 67 66 65 64 62 60 57 54 53 52 51 51 51 51 50 49 48 47 47 46 44 42 42 42 41 40 38 36 37 40 41 40 39 40 41 42 43 43 43 44 45 46 47 49 50 51 53 56 59 61 63 64 63 62 61 59 59 60 58 55 48 40 33 29 27 24 21 21
81 79 77 75 74 72 72 72 73 73 74 74 73 71 71 70 69 70 70 69 68 68 67 65 64 62 60 57 55 53 52 52 51 52 50 48 47 47 46 46 45 43 42 41 41 41 40 37 35 37 39 40 40 40 40 42 42 42 42 43 44 44 45 46 48 49 50 52 55 58 60 63 64 64 63 61 60 60 60 58 55 47 39 32 29 26 23 20
84 82 79 76 74 73 71 72 73 73 73 75 75 73 72 71 70 70 70 70 69 68 67 66 65 64 62 60 58 55 54 53 52 52 51 49 48 47 46 45 44 43 42 41 41 42 42 39 35 35 37 37 39 39 39 40 42 42 41 41 43 44 44 44 46 48 49 50 52 54 57 59 61 63 64 64 62 61 60 60 60 57 49 39 32 28 23 20
85 83 81 80 79 77 73 73 73 74 75 77 76 75 74 73 72 71 70 70 70 69 68 66 66 66 65 63 60 58 57 56 54 53 52 51 49 47 46 45 45 44 42 41 40 41 43 41 36 35 36 36 37 39 39 38 40 41 41 40 40 42 42 42 43 45 47 49 50 52 54 56 58 60 61 63 63 62 62 61 61 61 57 49 38 31 26 20
84 83 82 84 84 80 77 76 76 77 77 77 76 75 75 74 73 72 71 71 70 70 68 67 67 68 67 64 63 61 61 59 56 55 53 52 51 49 47 45 45 44 42 41 41 40 41 43 39 36 37 35 34 38 40 39 39 39 39 40 39 40 41 41 41 42 45 47 49 49 50 53 55 58 60 61 62 63 62 61 60 60 60 56 48 38 31 25
86 84 83 85 85 84 83 82 81 79 77 77 77 75 75 75 75 74 73 72 71 70 70 68 69 70 69 66 65 64 64 62 58 56 55 53 52 51 48 46 45 44 42 40 41 40 40 42 41 37 39 37 32 35 40 40 40 40 39 39 39 39 40 40 39 40 41 44 46 47 48 50 52 55 57 59 61 62 62 62 61 60 59 59 55 48 39 32
90 87 87 88 87 86 86 86 85 81 79 78 76 74 75 76 76 77 76 74 72 71 71 70 72 73 72 69 67 66 67 65 61 59 58 55 53 52 50 47 46 45 43 41 41 41 40 42 41 38 40 40 33 32 38 40 40 41 40 39 39 38 39 39 38 38 38 40 42 45 46 47 49 50 53 56 59 60 61 62 62 62 60 59 58 55 49 41
95 93 93 93 90 87 87 87 87 85 82 78 74 73 75 77 78 79 79 77 74 72 71 73 74 74 73 72 70 69 70 67 63 62 60 56 55 53 50 48 47 46 44 42 41 41 40 41 41 38 39 42 38 32 35 39 39 40 40 40 39 38 38 39 38 37 37 37 39 41 43 44 45 47 49 52 55 58 60 61 62 62 62 60 58 57 55 50
99 98 98 98 95 92 91 89 88 87 83 78 76 77 77 78 79 81 80 78 75 74 73 75 75 74 74 73 72 73 72 68 64 64 63 59 57 55 52 50 49 47 45 43 41 40 41 41 41 37 37 42 42 35 35 38 39 39 39 39 38 39 39 39 38 37 36 36 36 37 39 41 42 44 46 48 51 54 57 58 60 61 62 62 60 58 56 55
Wind_Direction
147 151 155 160 167 175 182 190 198 209 220 229 236 241 246 250 255 259 262 264 266 268 270 272 273 274 275 276 277 278 278 278 278 277 277 277 276 275 275 274 272 271 269 268 266 265 264 263 261 260 259 258 258 257 256 255 255 254 254 255 256 256 257 257 257 257 256 252 249 249 249 250 251 251 250 250 250 250 250 249 249 249 250 251 252 253 254 255
135 136 136 139 143 148 156 164 171 177 186 202 217 230 240 248 257 263 269 270 271 272 273 274 276 277 276 277 279 280 281 281 280 280 280 279 279 278 277 277 276 275 275 273 271 269 267 266 264 262 260 259 258 257 256 255 255 255 254 254 254 254 254 254 255 255 255 255 253 251 250 250 250 250 250 249 249 249 249 249 248 248 249 250 251 253 254 254
130 128 126 125 125 127 134 143 153 158 161 167 176 194 223 253 273 284 291 293 291 288 286 285 284 283 281 280 280 281 282 282 283 282 281 280 279 278 277 276 276 275 275 276 275 274 273 271 268 266 264 262 260 258 256 255 255 254 254 254 253 253 252 253 253 253 253 254 254 253 252 253 252 251 250 249 248 248 248 249 249 248 248 249 250 252 253 253
122 119 114 109 105 103 102 107 119 133 140 139 137 129 103 39 357 339 330 328 325 321 318 314 310 307 301 294 290 290 289 289 290 289 287 285 283 281 280 278 277 276 276 276 276 276 276 275 274 271 268 265 263 260 258 257 255 254 253 253 252 251 251 251 252 252 252 252 253 253 253 254 255 254 252 250 249 248 248 248 248 248 248 248 249 250 252 253
109 106 100 92 84 77 72 65 62 63 58 52 47 37 25 8 357 347 341 340 340 341 341 339 335 331 327 320 312 308 307 307 307 305 302 299 296 293 290 287 285 283 282 280 279 277 277 277 276 275 273 270 266 263 261 259 257 255 254 252 251 250 249 249 249 250 250 250 251 251 252 253 254 255 254 253 252 251 249 248 248 248 248 248 248 249 250 251
96 90 82 71 59 53 47 44 40 33 25 16 8 2 357 353 351 348 344 343 342 343 345 346 344 341 338 335 329 325 323 323 324 323 321 317 313 308 303 299 296 295 293 289 286 283 280 278 277 277 276 275 271 267 263 261 259 257 255 252 250 249 248 247 247 247 248 248 248 248 249 251 252 253 254 255 254 252 251 250 249 248 248 248 249 248 248 249
69 60 50 37 25 19 17 17 15 10 6 2 358 355 353 351 349 347 346 344 343 343 344 345 345 344 343 341 338 334 332 331 332 333 332 331 328 324 318 314 310 309 306 302 298 293 288 285 281 279 277 275 274 271 267 262 260 258 255 253 251 248 247 246 245 245 245 245 246 246 246 248 249 250 252 253 254 253 252 251 250 249 249 248 249 248 247 247
21 12 2 355 352 352 351 350 351 351 350 348 347 345 345 345 344 344 343 342 342 342 342 344 343 343 344 344 342 340 339 337 337 338 339 340 339 336 332 328 324 320 318 314 310 304 298 294 289 285 280 277 274 272 269 265 261 258 256 254 251 249 247 245 243 243 243 243 243 243 244 244 246 248 249 251 252 253 253 252 251 249 249 248 248 248 246 246
351 344 338 336 336 336 336 336 336 336 336 337 336 335 335 336 337 337 338 338 338 338 340 342 343 342 342 343 344 343 342 342 342 343 344 344 345 344 342 339 335 331 327 323 318 312 306 301 297 292 287 282 276 272 270 267 263 259 256 254 251 249 247 245 243 242 241 241 241 241 241 242 243 245 246 248 250 251 252 252 251 249 248 246 246 246 245 245
335 332 329 328 327 327 328 329 329 328 328 329 329 328 328 329 330 331 332 333 334 335 336 339 341 341 341 342 343 344 344 344 346 346 347 348 347 347 346 344 342 339 335 330 324 318 312 308 303 298 293 287 281 275 271 267 264 260 256 253 251 249 247 245 243 241 240 240 240 240 239 240 241 242 243 245 248 249 250 251 251 250 248 245 244 244 244 244
318 320 320 320 321 321 323 325 325 325 325 325 326 326 326 327 327 327 328 329 330 331 333 335 338 339 340 341 342 344 343 345 346 348 349 349 348 349 349 348 346 345 341 336 331 325 319 314 309 304 298 292 286 280 274 269 265 261 257 253 251 248 246 245 243 241 240 239 238 238 239 239 240 240 241 243 245 247 249 250 250 250 248 245 243 242 243 244
304 308 311 313 315 317 318 320 321 321 321 322 323 324 325 326 326 326 327 327 328 328 329 331 334 336 337 339 341 342 343 344 346 348 350 350 349 350 351 350 349 349 346 342 338 333 327 321 316 310 304 297 290 284 277 271 265 261 258 254 251 248 246 244 243 241 240 239 238 237 238 238 239 239 239 241 242 244 246 247 249 249 247 245 242 241 241 243
295 298 302 305 308 310 312 314 315 316 317 318 320 321 322 324 325 324 325 326 326 327 327 328 331 333 334 337 339 340 341 342 345 347 349 350 350 350 351 351 350 351 350 348 344 341 335 329 323 318 311 303 295 287 280 273 266 261 257 254 251 248 246 244 243 241 240 239 238 237 237 237 238 238 238 239 240 241 243 245 246 247 246 244 242 240 239 241
291 294 296 299 301 304 306 307 309 310 312 314 316 319 320 322 323 322 322 323 324 324 325 326 329 331 333 335 337 339 339 340 343 346 347 348 349 350 351 352 352 352 353 352 349 347 343 336 330 324 319 311 301 292 283 276 268 262 257 254 251 248 246 244 243 241 240 239 238 238 236 236 236 237 237 237 238 239 240 242 243 244 244 243 241 240 239 239
286 289 292 295 298 301 302 302 303 304 307 310 312 315 318 320 321 321 321 321 321 322 323 324 326 330 332 333 335 337 338 339 341 344 346 347 348 350 351 352 353 353 354 354 353 351 349 344 338 332 327 320 311 300 289 279 271 265 259 253 251 248 246 244 243 242 241 240 239 238 237 235 235 236 236 237 237 238 238 239 241 242 242 242 240 240 239 239
283 286 289 292 295 298 300 300 300 301 303 305 308 311 314 317 319 319 319 320 320 320 321 322 324 327 330 332 333 336 337 338 339 342 344 346 348 350 351 352 353 354 354 355 356 354 353 352 347 341 335 329 320 309 297 285 275 267 260 255 251 249 247 245 243 242 241 241 240 239 237 235 235 235 235 236 236 237 237 238 239 240 241 241 240 239 239 239
282 285 287 289 292 295 298 299 299 299 300 301 304 307 310 313 315 316 317 318 318 319 320 321 322 324 327 329 331 334 336 337 338 340 342 344 346 348 350 352 353 354 355 356 358 358 357 357 355 349 343 338 331 321 307 293 281 271 263 257 252 250 248 246 243 242 241 241 240 239 238 236 235 235 235 235 236 236 236 236 237 238 239 239 239 239 238 238
281 284 286 288 290 293 296 297 298 298 298 299 301 303 305 308 311 313 315 316 317 317 319 320 321 322 324 326 329 331 333 335 337 339 340 342 345 347 349 351 352 353 355 357 358 360 0 0 0 357 351 346 341 333 322 307 291 278 269 261 255 251 249 247 245 243 242 241 241 240 238 236 235 235 235 235 235 235 236 236 236 236 237 237 238 238 237 237
280 283 286 288 290 292 294 295 296 297 298 299 299 301 302 304 307 309 312 314 315 315 316 318 319 321 322 324 326 328 330 333 335 337 339 341 343 345 348 350 352 353 355 357 358 1 3 3 3 2 359 354 350 344 336 325 309 291 277 268 260 254 250 248 247 245 244 242 241 240 239 237 236 235 235 235 234 235 235 235 235 235 235 236 237 237 237 236
280 282 284 286 288 290 291 293 294 295 298 299 299 300 300 301 303 305 308 312 313 313 314 315 317 319 320 322 324 326 328 330 333 336 338 340 341 343 346 349 351 352 354 356 358 1 3 5 6 6 5 2 358 353 347 340 328 311 291 277 268 261 254 250 248 246 245 244 243 242 240 239 238 237 236 236 235 235 235 235 235 235 235 235 235 236 236 236
279 281 283 284 286 287 289 291 292 293 295 296 297 298 298 299 299 301 305 309 311 312 312 313 315 317 318 320 321 323 326 328 331 334 336 338 340 342 344 347 350 352 353 355 358 0 3 5 8 8 8 7 5 0 355 350 343 332 315 295 279 270 261 254 250 247 245 244 244 243 241 239 239 239 238 237 237 236 236 236 236 236 235 234 234 235 235 236
277 279 281 282 284 286 287 289 289 290 290 291 294 296 296 297 297 298 302 306 309 310 310 311 313 315 316 317 319 321 323 326 328 331 334 337 339 340 342 345 349 351 353 355 357 359 2 5 8 10 10 10 9 7 3 359 353 346 335 319 300 283 272 262 255 250 246 244 243 243 241 240 240 240 239 238 237 237 236 236 236 236 236 235 234 234 234 235
274 276 278 280 282 283 285 287 287 287 287 287 289 291 293 294 294 296 299 303 307 308 308 309 311 313 315 315 317 319 321 323 326 329 332 335 337 339 341 344 347 350 352 354 356 358 1 4 7 10 12 12 11 11 10 7 2 356 349 338 323 305 289 275 264 256 251 246 244 243 242 240 239 240 240 239 238 237 237 237 236 236 236 236 235 234 233 234
271 274 276 277 279 281 283 284 284 284 285 284 282 285 290 291 291 294 297 301 306 306 306 308 310 312 314 314 315 317 319 321 324 327 330 333 335 337 339 342 345 348 351 353 355 358 0 3 6 9 12 14 13 13 13 14 11 5 360 352 341 327 310 294 278 265 257 251 247 245 243 240 240 240 239 239 239 238 238 238 237 236 236 236 235 235 234 234
269 271 273 275 277 279 280 280 280 282 283 281 279 279 282 286 288 292 296 302 304 304 304 307 308 311 313 314 314 316 318 320 322 325 328 331 334 336 338 341 343 346 349 352 354 357 359 2 4 7 11 14 15 15 15 15 16 14 10 3 356 345 331 315 297 281 267 258 251 247 245 241 240 241 239 239 239 237 237 238 237 237 236 236 235 235 235 234
269 270 272 274 275 277 278 277 277 279 279 279 277 276 277 281 287 292 297 303 303 301 303 305 307 309 311 314 314 315 317 319 321 323 326 329 332 334 336 339 342 344 347 350 353 356 358 0 3 6 9 13 16 17 17 16 16 18 17 13 8 359 350 337 318 301 283 269 259 253 249 242 241 242 241 239 239 236 236 237 237 237 236 236 235 235 235 234
266 268 270 272 273 274 275 275 276 277 277 276 276 277 278 281 286 292 298 301 300 299 301 303 305 306 309 312 314 315 317 318 320 322 324 327 330 332 335 338 340 343 346 349 351 354 357 359 2 5 8 11 14 17 19 18 18 18 18 18 17 12 5 355 341 323 303 286 272 262 254 244 241 243 241 239 239 238 236 236 236 236 236 236 235 235 234 234
261 262 264 266 268 270 270 272 274 274 275 275 275 277 279 281 286 291 295 297 296 297 298 300 302 304 307 310 313 314 316 318 320 322 324 326 329 331 333 336 339 341 344 347 349 352 355 358 0 3 6 9 12 16 18 20 20 20 19 19 19 19 16 9 360 346 328 306 287 271 259 247 240 241 242 241 240 240 238 237 236 236 236 236 235 235 234 234
262 261 261 262 263 264 265 267 269 270 272 274 275 276 278 280 284 289 291 292 292 294 295 297 300 302 304 307 311 313 314 317 318 320 323 325 327 329 331 334 337 340 342 345 348 350 354 357 359 1 4 8 11 13 16 19 21 21 22 21 20 20 19 18 14 5 352 333 308 285 268 255 244 243 246 246 243 241 241 240 238 236 236 236 235 234 234 234
266 266 265 265 264 264 263 263 264 266 269 272 274 276 277 279 283 286 288 288 289 291 293 295 298 300 302 304 308 310 312 314 317 319 321 324 325 327 329 332 335 338 341 343 346 349 352 355 358 0 3 5 9 12 14 17 19 21 22 23 23 22 21 20 20 16 8 356 336 309 284 267 255 248 249 251 249 245 242 241 240 239 238 238 237 235 235 235
265 266 267 267 268 268 267 265 265 265 266 269 272 275 277 278 282 285 287 288 289 290 291 293 296 298 300 302 305 308 309 311 314 317 320 322 324 326 327 330 333 336 339 341 344 346 349 353 356 358 1 3 6 10 12 15 17 20 21 22 23 24 24 22 22 21 18 12 0 340 314 290 273 262 255 254 254 251 246 242 241 240 239 238 238 237 236 234
264 264 265 266 267 269 269 269 269 268 267 267 270 273 275 278 281 284 287 288 289 289 290 292 294 296 297 300 302 305 307 309 311 314 317 320 323 324 326 328 331 334 336 339 342 344 347 350 354 357 359 2 4 7 11 13 16 18 20 21 22 24 24 25 24 23 23 21 15 4 347 325 302 285 271 262 259 256 252 247 243 242 241 239 238 237 237 235
262 263 263 264 264 266 268 269 270 270 270 270 270 273 276 279 281 283 286 287 287 287 289 291 293 294 295 297 300 302 304 307 308 310 314 317 320 323 324 325 328 331 334 336 339 342 344 348 352 355 357 360 2 5 8 11 14 16 18 19 21 23 24 25 26 24 24 23 21 17 8 355 338 319 300 280 267 262 259 254 248 244 242 241 239 238 237 237
261 262 262 262 263 263 264 266 268 269 270 271 273 275 278 280 281 282 283 284 285 286 287 289 291 292 293 295 297 299 302 304 305 307 310 314 317 320 322 324 326 329 331 334 337 340 342 345 349 353 355 358 1 3 6 9 12 14 17 18 19 20 22 23 25 27 26 24 23 22 20 13 1 346 329 308 285 272 265 260 255 249 245 242 240 239 238 238
262 262 261 261 262 262 263 263 265 266 268 270 272 275 277 278 278 280 281 282 283 284 286 287 289 290 291 292 294 297 299 301 303 304 306 310 313 317 320 322 323 326 329 331 334 337 340 342 346 350 353 355 358 1 3 6 9 12 15 17 18 19 20 20 22 25 26 25 23 21 21 20 15 5 350 330 308 289 275 267 261 255 250 246 242 239 238 237
262 262 263 262 262 262 262 263 263 264 265 267 269 272 273 274 275 277 278 280 281 282 284 285 287 288 289 291 293 295 297 299 300 301 303 306 309 313 317 319 321 323 326 328 332 334 337 339 343 347 350 353 355 359 1 4 6 10 12 15 17 18 19 20 20 21 23 25 25 23 20 18 16 11 3 348 327 305 291 280 271 263 257 252 247 242 240 239
261 262 263 263 263 263 263 263 263 263 263 264 265 268 270 271 273 274 276 278 279 280 281 282 284 287 289 290 291 293 295 297 298 299 301 303 306 309 313 316 318 321 323 325 328 332 334 337 339 343 347 350 353 355 359 2 4 6 10 12 15 17 19 20 21 21 21 22 24 25 23 21 18 14 8 358 343 323 307 296 287 278 269 261 254 248 243 240
259 260 261 262 262 263 263 263 263 263 263 264 264 265 267 269 271 272 273 275 276 277 278 280 282 286 288 289 289 291 293 295 296 297 299 301 303 305 308 312 315 318 320 322 324 328 332 334 336 339 343 347 350 353 356 359 2 4 6 9 12 15 17 19 21 22 22 22 23 24 25 24 22 18 13 5 355 341 327 316 306 295 282 271 262 254 247 243
258 259 260 261 261 261 262 262 262 263 263 264 264 263 263 265 267 269 271 272 273 274 276 278 280 283 285 286 287 289 291 293 294 295 297 299 300 302 305 308 311 314 317 319 321 324 328 332 334 336 339 343 346 350 353 356 360 2 3 6 10 12 14 16 18 21 23 23 23 23 24 25 25 22 18 12 5 356 345 335 326 314 296 279 269 260 252 245
257 258 258 259 260 260 260 261 261 262 262 263 263 263 262 263 264 266 268 269 271 272 274 276 278 280 282 284 286 287 290 292 292 293 295 296 298 299 302 305 308 310 314 316 318 320 323 328 331 333 335 339 343 346 349 352 356 360 2 3 6 10 13 14 15 17 20 22 23 24 24 25 26 25 22 18 12 5 357 348 340 331 320 298 276 265 258 251
255 257 257 258 258 258 259 259 260 261 261 262 262 262 261 262 263 265 267 268 269 270 272 274 276 278 280 282 284 285 287 289 290 290 292 293 295 297 299 302 304 306 310 313 315 317 320 324 328 331 332 335 338 342 345 349 352 357 360 1 3 7 11 13 13 14 16 18 21 22 23 24 25 26 25 22 18 12 6 359 351 344 336 324 298 272 262 257
253 255 255 256 257 257 258 259 259 260 260 260 260 260 260 261 262 264 266 268 269 270 271 273 275 277 278 280 282 283 284 285 286 287 288 290 293 294 296 298 301 303 306 309 312 314 317 320 323 328 330 331 334 338 342 345 349 353 357 359 360 3 7 11 13 13 14 16 18 20 22 23 24 24 25 24 21 18 13 7 0 353 345 336 321 294 270 260
251 252 253 255 256 257 258 258 259 259 259 258 258 259 259 260 261 262 263 265 268 270 271 273 274 275 276 277 278 280 281 282 283 284 285 287 290 292 293 295 297 299 302 305 308 311 314 317 320 323 327 329 331 333 337 341 345 349 353 356 358 360 3 7 11 12 13 14 15 18 20 22 23 23 23 24 23 22 19 14 8 1 354 346 334 317 292 271
249 250 251 253 255 256 257 257 257 257 257 257 258 258 258 259 260 261 261 263 265 267 269 271 272 273 274 274 275 277 279 280 281 282 282 283 286 288 290 292 294 296 298 301 305 307 311 314 317 319 324 327 328 330 333 337 341 344 348 352 355 357 0 3 7 10 12 13 14 15 17 19 21 22 22 22 23 23 22 19 14 9 3 357 348 334 316 294
248 248 249 250 253 255 256 256 255 255 255 256 256 257 257 257 258 259 260 261 263 265 267 269 270 271 272 272 273 275 276 277 278 279 280 281 283 284 286 289 291 293 295 298 301 304 306 311 314 315 319 323 324 327 330 332 336 340 344 348 351 354 358 0 3 7 10 12 13 13 14 16 17 18 20 21 22 22 22 22 19 14 10 6 0 350 334 316
247 248 248 249 250 251 253 254 255 254 254 254 254 254 255 256 256 258 259 261 262 264 265 267 269 270 271 272 273 273 274 275 276 276 277 278 279 280 282 285 288 290 292 294 298 300 303 307 311 312 315 319 320 322 326 328 331 335 339 344 347 349 353 358 0 4 7 9 12 13 13 14 14 15 16 18 20 21 22 23 22 20 15 11 8 3 351 333
247 247 248 248 248 249 250 252 254 254 253 252 252 253 253 254 255 256 258 259 260 261 263 265 267 268 269 270 271 271 272 272 273 274 274 275 276 277 279 281 284 286 289 291 294 297 299 303 308 309 311 316 317 317 321 324 326 330 334 338 343 345 348 353 357 0 4 6 9 11 12 12 13 14 15 16 17 20 21 23 24 24 21 17 13 11 8 356
246 246 246 247 248 248 248 249 251 251 252 252 253 253 253 253 254 254 256 257 258 259 260 261 263 265 266 267 269 270 270 270 271 272 272 272 273 275 276 278 280 282 285 288 291 293 296 299 305 307 307 312 315 314 316 320 322 326 329 333 338 341 342 348 353 357 1 3 6 9 10 11 11 12 14 15 16 17 20 22 24 25 25 23 19 17 15 13
245 245 245 246 247 247 247 247 248 249 251 253 253 253 253 253 253 253 253 254 256 257 257 259 260 262 263 264 265 267 268 268 269 270 271 271 272 272 273 274 276 278 281 284 287 290 292 296 301 304 304 308 313 311 311 315 319 322 325 328 333 337 338 342 348 353 358 1 3 5 7 9 10 10 12 14 15 16 17 20 22 24 26 27 26 24 22 21
244 245 245 245 245 246 246 247 247 248 249 251 252 254 254 253 252 252 252 252 253 255 256 257 258 259 261 261 263 264 265 266 267 267 268 270 270 271 271 271 272 274 277 280 284 287 289 292 297 301 301 304 309 309 307 310 315 318 322 324 328 332 334 337 343 349 354 358 360 2 4 7 9 10 10 11 13 15 16 18 20 23 25 27 29 29 29 28
244 244 245 244 244 244 245 246 246 246 246 249 251 252 253 253 252 252 252 252 252 253 254 255 256 257 259 260 261 262 262 264 266 266 267 268 269 269 269 269 269 271 274 276 280 284 286 289 293 297 298 300 304 307 305 305 310 314 317 320 323 326 330 332 337 342 348 353 357 359 2 4 6 8 9 10 11 13 15 17 18 20 22 25 28 30 32 33
244 244 246 246 244 243 243 244 244 245 246 247 249 249 250 251 251 251 252 252 252 251 251 252 254 255 258 260 260 261 261 263 264 264 265 266 266 268 268 267 266 268 270 273 275 279 283 285 289 293 294 295 300 304 302 302 305 309 313 316 318 321 325 328 331 335 341 348 353 356 358 1 4 6 7 8 9 10 12 15 17 19 20 22 25 28 32 35
Height
10710 10710 10710 10711 10711 10711 10711 10711 10711 10711 10711 10710 10710 10710 10709 10709 10708 10707 10707 10706 10704 10703 10701 10700 10698 10697 10695 10694 10692 10690 10688 10685 10683 10681 10678 10675 10672 10669 10666 10662 10658 10655 10651 10648 10644 10640 10637 10638 10639 10638 10636 10636 10636 10638 10638 10640 10641 10643 10646 10651 10665 10679 10683 10686 10687 10690 10698 10702 10700 10698 10701 10704 10706 10715 10726 10734 10740 10745 10750 10755 10761 10764 10766 10767 10768 10770 10772 10777
10709 10709 10710 10710 10710 10710 10710 10709 10709 10709 10709 10708 10708 10708 10707 10707 10706 10705 10704 10703 10702 10701 10699 10698 10696 10694 10693 10691 10689 10687 10684 10682 10679 10676 10674 10670 10667 10664 10660 10656 10652 10647 10643 10639 10634 10630 10625 10623 10623 10623 10622 10621 10622 10622 10621 10622 10625 10627 10630 10639 10655 10666 10668 10671 10672 10677 10683 10685 10687 10685 10687 10693 10696 10704 10715 10724 10730 10735 10740 10745 10752 10756 10758 10759 10760 10762 10766 10771
10709 10709 10709 10709 10709 10709 10709 10708 10708 10707 10707 10706 10706 10706 10705 10704 10704 10703 10702 10700 10699 10698 10696 10695 10693 10691 10689 10688 10686 10684 10681 10678 10676 10673 10669 10666 10663 10659 10655 10650 10646 10641 10636 10631 10625 10620 10615 10611 10610 10609 10607 10607 10608 10607 10604 10605 10609 10612 10615 10626 10642 10650 10652 10655 10658 10663 10669 10672 10674 10672 10674 10680 10683 10691 10701 10712 10719 10725 10731 10736 10741 10746 10748 10750 10751 10754 10759 10765
10709 10709 10709 10708 10708 10708 10707 10707 10706 10706 10705 10704 10704 10703 10702 10701 10700 10699 10698 10697 10695 10694 10692 10691 10689 10687 10686 10684 10682 10680 10678 10675 10672 10668 10665 10661 10658 10654 10649 10645 10639 10634 10629 10624 10618 10612 10606 10601 10598 10595 10594 10593 10593 10593 10590 10589 10593 10596 10601 10612 10624 10632 10636 10640 10643 10648 10654 10659 10661 10660 10662 10666 10669 10676 10686 10697 10707 10715 10722 10726 10730 10733 10737 10740 10742 10748 10755 10759
10708 10708 10708 10707 10707 10706 10706 10705 10704 10704 10703 10702 10701 10700 10699 10698 10697 10696 10695 10693 10692 10690 10688 10687 10685 10683 10681 10680 10678 10676 10673 10670 10667 10664 10660 10656 10652 10648 10643 10638 10633 10626 10621 10616 10610 10604 10598 10592 10587 10583 10581 10579 10578 10577 10576 10576 10577 10581 10587 10596 10604 10612 10619 10625 10629 10632 10638 10643 10648 10649 10649 10654 10657 10661 10669 10681 10693 10703 10710 10714 10719 10722 10726 10730 10734 10743 10751 10752
10707 10706 10706 10706 10705 10705 10704 10703 10702 10701 10700 10699 10698 10697 10696 10695 10694 10693 10691 10690 10688 10686 10685 10683 10681 10679 10677 10675 10673 10671 10669 10666 10662 10659 10655 10651 10646 10642 10637 10631 10626 10618 10612 10606 10601 10595 10589 10584 10578 10573 10569 10565 10563 10563 10563 10562 10562 10566 10572 10578 10585 10594 10601 10608 10614 10616 10621 10626 10631 10635 10637 10641 10644 10648 10655 10665 10677 10688 10695 10702 10708 10712 10716 10721 10726 10736 10745 10745
10705 10705 10704 10704 10703 10702 10701 10701 10700 10699 10698 10697 10696 10695 10694 10692 10691 10690 10688 10687 10685 10683 10681 10679 10677 10675 10673 10670 10668 10665 10663 10660 10657 10653 10649 10645 10640 10635 10630 10624 10618 10611 10603 10596 10591 10585 10579 10573 10568 10563 10558 10553 10550 10548 10548 10548 10548 10551 10556 10561 10568 10576 10582 10589 10597 10600 10605 10609 10613 10619 10623 10628 10631 10634 10642 10651 10662 10671 10680 10689 10696 10702 10707 10712 10718 10727 10736 10736
10704 10703 10703 10702 10701 10700 10700 10699 10698 10697 10696 10694 10693 10692 10691 10690 10688 10687 10685 10683 10682 10680 10678 10676 10673 10671 10669 10666 10663 10660 10658 10655 10652 10648 10643 10639 10634 10628 10623 10617 10611 10604 10596 10589 10582 10574 10568 10562 10556 10551 10546 10542 10538 10533 10533 10534 10534 10537 10542 10547 10552 10558 10564 10570 10578 10584 10589 10594 10598 10603 10608 10614 10618 10621 10627 10637 10647 10656 10665 10675 10684 10691 10697 10704 10710 10717 10726 10725
10703 10702 10701 10701 10700 10699 10698 10697 10696 10695 10693 10692 10691 10690 10688 10687 10685 10684 10682 10680 10678 10676 10674 10672 10669 10667 10664 10661 10659 10655 10652 10649 10646 10642 10638 10633 10629 10623 10618 10612 10605 10598 10590 10582 10574 10566 10558 10551 10545 10539 10533 10530 10525 10520 10520 10519 10521 10525 10528 10532 10536 10541 10547 10552 10559 10566 10572 10579 10583 10588 10592 10598 10605 10608 10614 10623 10632 10641 10651 10661 10671 10680 10688 10696 10700 10706 10713 10714
10701 10701 10700 10699 10698 10697 10696 10695 10694 10693 10691 10690 10688 10687 10686 10684 10682 10681 10679 10677 10675 10672 10670 10668 10666 10663 10660 10657 10654 10651 10648 10644 10641 10637 10633 10628 10624 10619 10613 10607 10599 10592 10584 10575 10566 10558 10549 10541 10534 10528 10521 10517 10512 10509 10508 10507 10509 10511 10513 10517 10521 10525 10530 10536 10542 10547 10555 10563 10567 10573 10577 10582 10590 10597 10604 10610 10618 10628 10637 10646 10657 10667 10678 10686 10689 10694 10699 10702
10699 10699 10698 10697 10696 10695 10694 10693 10691 10690 10689 10687 10686 10684 10683 10681 10679 10677 10676 10674 10671 10669 10666 10664 10662 10659 10656 10653 10650 10647 10643 10640 10636 10632 10628 10623 10619 10614 10607 10601 10594 10586 10577 10568 10558 10549 10540 10531 10524 10518 10511 10505 10501 10497 10496 10496 10497 10497 10499 10504 10507 10511 10515 10521 10527 10531 10538 10545 10550 10556 10562 10568 10579 10588 10595 10599 10605 10615 10624 10633 10643 10654 10666 10674 10678 10682 10686 10690
10697 10696 10695 10694 10693 10692 10691 10690 10689 10687 10686 10684 10683 10681 10679 10678 10676 10674 10672 10670 10668 10665 10663 10660 10658 10655 10652 10649 10646 10643 10639 10635 10632 10628 10623 10619 10614 10608 10603 10596 10589 10581 10572 10562 10551 10541 10531 10523 10515 10509 10502 10496 10490 10487 10485 10484 10485 10485 10487 10490 10493 10497 10501 10508 10512 10516 10523 10527 10533 10541 10548 10558 10571 10580 10585 10587 10592 10600 10610 10619 10629 10640 10652 10661 10666 10671 10674 10678
10695 10694 10693 10692 10690 10689 10688 10687 10686 10684 10683 10681 10680 10678 10676 10674 10672 10670 10669 10666 10664 10662 10659 10657 10654 10652 10649 10646 10642 10639 10635 10631 10628 10623 10619 10615 10610 10605 10599 10592 10585 10577 10567 10556 10546 10535 10524 10515 10507 10500 10494 10488 10482 10478 10475 10474 10473 10474 10476 10478 10482 10485 10488 10495 10499 10502 10508 10511 10518 10526 10535 10551 10563 10568 10572 10573 10577 10586 10596 10606 10616 10626 10638 10647 10653 10658 10662 10666
10692 10691 10690 10689 10687 10686 10685 10684 10682 10681 10680 10678 10677 10675 10673 10671 10669 10667 10665 10663 10661 10658 10656 10653 10651 10648 10645 10642 10639 10635 10631 10627 10623 10619 10615 10611 10606 10601 10595 10588 10581 10572 10563 10553 10542 10531 10520 10509 10500 10492 10485 10480 10475 10470 10466 10464 10463 10464 10466 10468 10470 10472 10477 10483 10485 10490 10494 10497 10506 10512 10524 10543 10549 10553 10558 10558 10562 10572 10582 10593 10602 10612 10623 10633 10639 10644 10650 10656
10689 10688 10687 10686 10685 10683 10682 10681 10679 10678 10677 10675 10673 10672 10670 10668 10666 10664 10662 10660 10658 10655 10653 10650 10647 10645 10642 10638 10635 10631 10628 10623 10619 10614 10610 10606 10601 10596 10590 10584 10577 10569 10560 10551 10540 10529 10517 10505 10495 10487 10479 10473 10468 10463 10458 10455 10454 10454 10457 10458 10459 10461 10465 10471 10474 10479 10482 10486 10494 10499 10512 10532 10534 10537 10544 10544 10548 10558 10568 10579 10589 10599 10609 10619 10626 10631 10638 10644
10686 10685 10684 10683 10681 10680 10679 10678 10676 10675 10673 10672 10670 10668 10667 10665 10663 10661 10658 10656 10654 10652 10649 10646 10643 10641 10638 10635 10631 10628 10624 10620 10616 10611 10607 10602 10597 10591 10586 10579 10573 10566 10558 10549 10538 10527 10516 10504 10492 10483 10474 10467 10462 10457 10452 10449 10447 10446 10448 10449 10451 10452 10455 10460 10464 10468 10471 10476 10483 10488 10502 10519 10521 10523 10530 10532 10536 10544 10556 10566 10576 10587 10596 10606 10614 10619 10627 10632
10683 10682 10681 10679 10678 10677 10676 10675 10673 10672 10670 10668 10667 10665 10663 10661 10659 10657 10655 10653 10651 10648 10646 10643 10640 10637 10634 10631 10628 10624 10621 10617 10613 10608 10603 10599 10593 10588 10582 10576 10570 10563 10555 10547 10537 10526 10515 10503 10491 10481 10472 10464 10457 10452 10448 10443 10441 10440 10440 10441 10443 10444 10446 10451 10455 10457 10462 10466 10472 10478 10491 10505 10507 10509 10516 10520 10524 10531 10542 10553 10563 10575 10585 10594 10602 10609 10617 10621
10679 10678 10677 10676 10675 10674 10673 10672 10670 10668 10667 10665 10663 10662 10660 10658 10656 10654 10652 10650 10647 10645 10642 10640 10637 10634 10631 10628 10624 10621 10617 10614 10609 10605 10600 10596 10590 10585 10579 10573 10567 10560 10553 10545 10536 10526 10514 10503 10492 10481 10471 10463 10455 10449 10444 10439 10437 10435 10434 10435 10436 10437 10439 10442 10446 10449 10453 10456 10462 10469 10480 10490 10493 10496 10502 10507 10512 10519 10529 10539 10549 10562 10573 10581 10589 10596 10604 10610
10675 10674 10673 10672 10671 10670 10669 10668 10666 10665 10663 10661 10660 10658 10656 10654 10652 10650 10648 10646 10644 10642 10639 10636 10633 10630 10627 10624 10621 10617 10614 10610 10606 10602 10597 10593 10588 10582 10576 10570 10564 10558 10551 10543 10535 10525 10514 10504 10493 10482 10471 10462 10454 10447 10441 10437 10434 10431 10430 10430 10430 10431 10432 10435 10438 10442 10446 10449 10454 10459 10468 10477 10479 10484 10490 10494 10501 10508 10516 10526 10536 10548 10560 10569 10577 10583 10591 10597
10671 10670 10669 10668 10667 10666 10665 10664 10663 10661 10659 10658 10656 10654 10652 10651 10649 10647 10645 10643 10641 10638 10636 10633 10630 10627 10624 10621 10617 10614 10611 10607 10603 10599 10594 10590 10585 10580 10574 10568 10562 10556 10549 10541 10534 10525 10515 10505 10494 10483 10473 10463 10454 10447 10440 10435 10431 10429 10427 10426 10425 10425 10426 10428 10431 10435 10439 10442 10446 10451 10459 10467 10470 10474 10480 10484 10492 10500 10506 10513 10522 10533 10545 10556 10565 10571 10578 10585
10666 10666 10665 10664 10663 10662 10661 10660 10659 10657 10656 10654 10652 10650 10648 10647 10645 10643 10641 10639 10637 10635 10632 10629 10627 10624 10620 10617 10614 10611 10607 10603 10600 10596 10592 10587 10582 10577 10572 10566 10560 10554 10547 10539 10532 10524 10516 10506 10495 10485 10475 10465 10456 10447 10441 10435 10430 10426 10424 10423 10422 10421 10421 10422 10424 10428 10431 10434 10439 10443 10449 10458 10461 10465 10471 10477 10483 10491 10497 10502 10509 10519 10529 10542 10553 10560 10566 10571
10662 10661 10660 10659 10658 10657 10657 10656 10655 10653 10652 10651 10649 10647 10644 10642 10641 10639 10637 10636 10633 10631 10628 10626 10623 10620 10617 10614 10610 10607 10604 10600 10596 10592 10588 10584 10579 10574 10569 10564 10558 10552 10545 10538 10531 10524 10516 10507 10497 10487 10478 10468 10459 10450 10442 10435 10430 10425 10422 10420 10419 10417 10416 10417 10419 10421 10423 10426 10430 10432 10439 10449 10453 10455 10461 10468 10474 10480 10484 10489 10497 10505 10515 10527 10539 10547 10552 10557
10657 10656 10655 10654 10654 10653 10652 10651 10650 10649 10648 10646 10645 10643 10640 10638 10636 10634 10633 10632 10630 10627 10625 10622 10619 10617 10614 10610 10607 10604 10601 10597 10593 10589 10586 10582 10577 10572 10567 10562 10556 10550 10544 10538 10530 10523 10515 10507 10498 10489 10480 10471 10463 10454 10445 10437 10431 10426 10422 10418 10416 10414 10413 10413 10414 10416 10417 10420 10422 10425 10433 10441 10443 10444 10450 10456 10461 10468 10472 10477 10485 10493 10502 10513 10522 10531 10539 10546
10651 10651 10650 10649 10648 10648 10647 10646 10645 10644 10643 10641 10640 10639 10636 10634 10632 10630 10629 10628 10626 10623 10621 10618 10616 10613 10611 10607 10604 10601 10597 10594 10590 10586 10583 10579 10575 10570 10565 10560 10555 10549 10543 10536 10529 10522 10514 10507 10498 10490 10482 10473 10466 10458 10449 10441 10434 10427 10422 10418 10415 10412 10410 10410 10410 10411 10412 10414 10417 10419 10425 10433 10435 10435 10441 10445 10449 10457 10461 10464 10472 10480 10488 10497 10506 10516 10527 10535
10646 10645 10644 10644 10643 10642 10641 10641 10640 10639 10638 10636 10635 10634 10632 10629 10627 10626 10625 10624 10622 10620 10618 10615 10612 10610 10607 10604 10601 10597 10594 10590 10587 10583 10580 10576 10572 10568 10563 10558 10553 10547 10541 10535 10529 10522 10514 10507 10499 10491 10483 10475 10468 10460 10452 10445 10438 10431 10424 10419 10415 10412 10409 10407 10407 10407 10408 10409 10411 10412 10418 10428 10427 10424 10431 10433 10435 10444 10447 10449 10458 10467 10474 10482 10492 10504 10514 10522
10639 10639 10638 10638 10637 10636 10636 10635 10634 10634 10632 10630 10629 10628 10627 10625 10623 10622 10622 10621 10619 10616 10614 10612 10609 10606 10604 10601 10598 10594 10591 10587 10584 10580 10577 10573 10569 10566 10561 10556 10551 10546 10541 10535 10528 10522 10515 10508 10501 10493 10485 10477 10470 10462 10454 10447 10441 10434 10428 10422 10417 10412 10409 10407 10405 10404 10405 10405 10406 10407 10414 10423 10420 10416 10422 10421 10419 10427 10431 10434 10444 10453 10460 10468 10479 10488 10497 10505
10632 10632 10632 10631 10630 10630 10629 10629 10629 10628 10627 10624 10623 10622 10621 10620 10618 10618 10618 10618 10615 10612 10610 10608 10605 10603 10600 10598 10595 10591 10588 10585 10581 10577 10574 10570 10567 10563 10559 10555 10550 10545 10540 10534 10528 10522 10515 10508 10502 10495 10487 10479 10472 10464 10457 10450 10443 10436 10431 10425 10420 10414 10410 10407 10404 10403 10402 10402 10403 10404 10409 10415 10413 10408 10407 10403 10404 10413 10421 10426 10434 10441 10447 10455 10463 10471 10478 10487
10625 10625 10625 10624 10624 10623 10623 10623 10623 10622 10620 10618 10617 10617 10616 10615 10614 10613 10614 10614 10611 10608 10606 10604 10601 10599 10596 10594 10591 10588 10585 10582 10578 10575 10571 10567 10564 10560 10556 10553 10548 10543 10538 10533 10528 10522 10515 10509 10502 10496 10489 10481 10474 10466 10459 10453 10446 10439 10433 10427 10422 10417 10412 10408 10405 10402 10401 10400 10400 10400 10402 10405 10404 10397 10389 10390 10399 10408 10414 10420 10424 10429 10434 10439 10447 10454 10461 10470
10618 10618 10617 10617 10616 10616 10616 10616 10617 10616 10615 10613 10612 10611 10610 10609 10608 10608 10608 10608 10607 10604 10602 10600 10597 10595 10592 10590 10588 10585 10582 10579 10576 10572 10569 10565 10561 10557 10554 10550 10546 10542 10537 10532 10527 10521 10515 10509 10503 10496 10490 10483 10476 10469 10462 10455 10449 10442 10436 10430 10424 10419 10414 10410 10406 10402 10400 10399 10397 10397 10396 10397 10397 10391 10384 10387 10397 10404 10409 10412 10415 10418 10421 10425 10432 10441 10449 10457
10611 10611 10611 10610 10610 10609 10609 10610 10610 10610 10608 10607 10606 10605 10604 10603 10603 10603 10602 10602 10602 10600 10597 10595 10593 10591 10588 10586 10584 10582 10579 10576 10573 10570 10566 10563 10559 10555 10551 10547 10544 10540 10535 10531 10526 10521 10515 10509 10504 10497 10491 10485 10478 10471 10464 10457 10451 10445 10439 10433 10427 10422 10416 10411 10407 10403 10400 10398 10396 10394 10393 10392 10391 10389 10385 10385 10390 10397 10402 10404 10407 10410 10414 10418 10423 10432 10440 10446
10603 10604 10604 10604 10603 10603 10603 10603 10603 10603 10602 10600 10599 10599 10598 10597 10597 10597 10596 10596 10598 10596 10592 10591 10590 10587 10584 10582 10580 10578 10575 10573 10570 10567 10564 10560 10557 10553 10549 10545 10541 10538 10534 10530 10525 10520 10515 10510 10504 10498 10492 10486 10480 10473 10467 10460 10453 10447 10441 10435 10430 10424 10419 10414 10408 10404 10400 10397 10395 10392 10390 10388 10387 10386 10385 10384 10384 10388 10393 10396 10398 10401 10406 10411 10415 10421 10428 10433
10595 10596 10596 10596 10596 10596 10596 10597 10597 10596 10595 10594 10593 10592 10591 10592 10591 10590 10590 10591 10593 10591 10587 10586 10585 10582 10580 10578 10576 10574 10572 10569 10567 10564 10561 10558 10554 10551 10547 10544 10540 10536 10532 10528 10524 10520 10515 10510 10504 10499 10493 10487 10481 10475 10469 10462 10455 10449 10443 10438 10432 10426 10421 10416 10410 10406 10401 10397 10394 10391 10388 10386 10385 10383 10383 10382 10381 10380 10383 10387 10390 10392 10396 10401 10405 10409 10413 10417
10586 10587 10587 10588 10588 10589 10589 10590 10590 10590 10589 10587 10587 10585 10585 10586 10586 10584 10583 10585 10587 10585 10582 10581 10580 10578 10576 10574 10571 10570 10568 10565 10563 10560 10557 10555 10552 10549 10545 10542 10538 10535 10531 10527 10523 10519 10515 10510 10505 10499 10494 10488 10483 10477 10471 10465 10458 10452 10445 10439 10434 10429 10424 10419 10413 10408 10403 10398 10395 10391 10387 10384 10382 10380 10380 10379 10378 10376 10376 10378 10381 10384 10387 10390 10394 10397 10400 10403
10577 10578 10578 10579 10579 10581 10582 10582 10583 10582 10582 10581 10580 10580 10580 10580 10579 10578 10578 10578 10579 10579 10578 10576 10575 10573 10571 10569 10567 10566 10564 10561 10559 10557 10554 10551 10549 10546 10543 10540 10536 10533 10530 10526 10522 10518 10514 10510 10505 10500 10495 10490 10484 10479 10473 10467 10461 10455 10448 10442 10436 10430 10425 10420 10416 10410 10405 10400 10396 10393 10389 10385 10381 10378 10377 10375 10374 10373 10372 10371 10373 10375 10377 10380 10383 10385 10389 10392
10569 10569 10570 10570 10571 10572 10573 10575 10575 10575 10575 10575 10574 10575 10575 10573 10572 10571 10572 10572 10573 10573 10572 10571 10570 10568 10566 10565 10563 10561 10559 10557 10555 10553 10551 10548 10545 10543 10540 10538 10534 10531 10528 10525 10521 10517 10513 10509 10505 10500 10495 10490 10485 10480 10475 10469 10463 10457 10451 10446 10439 10432 10426 10420 10415 10411 10407 10402 10396 10391 10388 10385 10382 10379 10376 10373 10371 10369 10367 10366 10366 10367 10369 10371 10372 10374 10377 10379
10560 10560 10561 10561 10562 10563 10565 10566 10567 10567 10568 10568 10568 10569 10567 10565 10565 10565 10565 10565 10566 10566 10566 10565 10564 10563 10561 10560 10558 10557 10555 10553 10551 10549 10546 10544 10542 10540 10537 10535 10532 10529 10526 10523 10520 10516 10512 10508 10504 10500 10496 10491 10486 10481 10476 10471 10465 10460 10454 10448 10442 10436 10430 10422 10416 10410 10405 10401 10396 10390 10386 10382 10380 10377 10374 10372 10369 10367 10364 10362 10361 10361 10362 10362 10363 10365 10367 10368
10550 10551 10551 10551 10553 10554 10555 10557 10558 10559 10559 10560 10562 10562 10559 10558 10558 10558 10558 10559 10559 10560 10560 10559 10558 10558 10556 10555 10553 10552 10550 10548 10546 10545 10542 10541 10539 10536 10534 10532 10529 10527 10523 10520 10518 10515 10511 10507 10503 10500 10496 10491 10486 10482 10477 10472 10467 10462 10457 10451 10445 10440 10434 10427 10420 10413 10407 10401 10397 10392 10388 10383 10378 10375 10371 10369 10366 10364 10362 10359 10357 10356 10355 10355 10355 10357 10358 10359
10540 10541 10541 10542 10543 10545 10546 10548 10550 10551 10552 10553 10555 10554 10552 10551 10551 10550 10551 10552 10552 10553 10553 10552 10552 10552 10551 10549 10548 10547 10546 10544 10542 10540 10538 10537 10535 10533 10530 10529 10526 10524 10521 10518 10515 10513 10510 10506 10502 10498 10495 10491 10486 10482 10477 10473 10468 10463 10458 10453 10447 10442 10436 10431 10426 10420 10413 10406 10400 10395 10391 10386 10380 10375 10370 10366 10362 10360 10358 10355 10354 10352 10350 10349 10348 10348 10349 10350
10530 10531 10533 10533 10533 10535 10537 10538 10540 10542 10544 10546 10546 10545 10545 10544 10543 10543 10544 10544 10545 10546 10545 10545 10546 10546 10545 10544 10543 10542 10541 10539 10537 10536 10534 10532 10532 10529 10527 10525 10523 10521 10519 10516 10512 10510 10508 10505 10500 10497 10494 10490 10486 10482 10477 10473 10469 10464 10459 10454 10449 10443 10437 10432 10428 10423 10417 10412 10406 10400 10394 10389 10383 10377 10371 10365 10360 10356 10353 10350 10348 10347 10345 10343 10341 10340 10340 10340
10520 10522 10524 10523 10523 10526 10527 10529 10532 10534 10537 10538 10538 10537 10537 10536 10536 10536 10535 10536 10537 10538 10538 10538 10539 10540 10540 10538 10537 10536 10535 10534 10532 10531 10529 10528 10528 10526 10523 10521 10520 10517 10516 10514 10510 10507 10504 10503 10500 10496 10492 10489 10485 10481 10477 10473 10469 10465 10460 10455 10450 10445 10439 10433 10428 10423 10419 10415 10409 10403 10398 10391 10385 10378 10372 10366 10361 10355 10350 10346 10343 10341 10339 10338 10336 10334 10332 10332
10509 10513 10514 10512 10512 10515 10517 10520 10524 10525 10528 10530 10528 10527 10528 10529 10529 10528 10527 10528 10529 10530 10531 10531 10531 10533 10533 10532 10531 10530 10530 10529 10527 10527 10525 10523 10523 10522 10519 10518 10516 10514 10512 10511 10508 10505 10501 10499 10498 10495 10491 10487 10484 10481 10477 10473 10469 10465 10461 10456 10451 10447 10442 10436 10430 10424 10419 10414 10409 10404 10398 10391 10384 10378 10372 10367 10362 10355 10349 10344 10339 10336 10333 10331 10330 10328 10326 10325
10500 10502 10502 10501 10503 10505 10507 10512 10516 10517 10520 10520 10517 10518 10520 10521 10521 10521 10520 10520 10521 10522 10523 10523 10524 10526 10527 10526 10525 10525 10525 10523 10522 10522 10521 10519 10519 10518 10515 10514 10513 10510 10508 10507 10505 10503 10500 10496 10493 10493 10491 10487 10483 10480 10477 10473 10469 10465 10461 10456 10452 10447 10443 10438 10433 10428 10422 10415 10409 10403 10396 10390 10384 10378 10373 10368 10363 10356 10350 10343 10338 10334 10330 10327 10324 10323 10321 10319
10489 10490 10491 10492 10494 10496 10499 10505 10507 10508 10510 10508 10507 10510 10512 10513 10513 10513 10512 10512 10513 10514 10514 10515 10516 10518 10519 10520 10519 10518 10519 10518 10516 10516 10516 10514 10514 10513 10511 10509 10509 10507 10504 10503 10502 10500 10498 10495 10490 10488 10487 10486 10482 10478 10475 10472 10468 10465 10461 10457 10452 10448 10443 10439 10434 10429 10423 10417 10410 10404 10398 10392 10387 10380 10375 10371 10365 10359 10352 10346 10339 10333 10328 10324 10320 10317 10315 10314
10476 10478 10481 10483 10485 10488 10492 10495 10495 10496 10498 10497 10499 10502 10503 10504 10506 10505 10504 10504 10506 10507 10507 10507 10508 10509 10511 10513 10512 10512 10512 10512 10511 10509 10510 10510 10510 10509 10507 10505 10505 10503 10501 10499 10498 10497 10495 10493 10489 10485 10482 10482 10480 10476 10473 10470 10467 10464 10461 10457 10453 10448 10444 10439 10435 10430 10424 10419 10412 10405 10400 10394 10388 10383 10379 10374 10367 10361 10354 10347 10340 10333 10327 10322 10317 10313 10311 10309
10465 10468 10472 10475 10476 10479 10483 10483 10483 10486 10487 10487 10490 10493 10494 10496 10498 10497 10496 10497 10498 10499 10499 10499 10500 10501 10503 10504 10505 10505 10505 10506 10505 10503 10503 10505 10505 10504 10503 10501 10500 10499 10498 10495 10494 10492 10491 10490 10489 10484 10481 10478 10476 10474 10471 10467 10465 10462 10459 10456 10452 10449 10445 10440 10435 10431 10426 10421 10416 10409 10402 10395 10389 10385 10381 10375 10369 10362 10355 10348 10340 10333 10327 10321 10316 10312 10308 10305
10454 10459 10463 10466 10466 10468 10471 10471 10471 10475 10477 10476 10479 10483 10485 10488 10489 10488 10488 10490 10491 10491 10491 10491 10491 10492 10494 10495 10497 10498 10498 10499 10499 10498 10497 10498 10499 10498 10497 10497 10496 10495 10494 10492 10490 10488 10486 10486 10486 10483 10480 10478 10475 10472 10470 10466 10463 10460 10458 10455 10451 10447 10444 10440 10436 10432 10427 10422 10418 10412 10406 10400 10394 10389 10383 10377 10371 10365 10358 10350 10342 10334 10328 10322 10316 10312 10307 10303
10443 10450 10455 10454 10452 10455 10461 10461 10461 10463 10463 10463 10468 10474 10477 10478 10480 10481 10482 10482 10483 10482 10483 10484 10484 10483 10485 10487 10489 10491 10490 10491 10492 10492 10492 10492 10493 10493 10492 10492 10492 10491 10490 10488 10487 10485 10482 10481 10482 10480 10477 10476 10473 10470 10468 10466 10462 10459 10456 10454 10451 10447 10443 10440 10436 10432 10428 10423 10419 10414 10409 10404 10400 10394 10388 10381 10375 10369 10362 10354 10346 10338 10331 10324 10317 10312 10307 10303
10433 10439 10442 10439 10439 10446 10451 10449 10446 10448 10451 10454 10460 10466 10468 10469 10471 10473 10473 10473 10475 10475 10475 10477 10476 10474 10476 10479 10481 10482 10482 10483 10485 10485 10485 10486 10486 10487 10487 10487 10487 10486 10486 10485 10483 10482 10479 10476 10477 10477 10474 10474 10472 10467 10465 10463 10461 10458 10455 10452 10450 10447 10443 10440 10436 10432 10428 10424 10419 10415 10411 10406 10401 10396 10391 10385 10379 10373 10366 10359 10352 10345 10337 10329 10321 10314 10308 10304
10420 10426 10429 10427 10427 10432 10435 10433 10433 10439 10444 10446 10450 10456 10459 10461 10462 10462 10462 10464 10466 10466 10467 10469 10467 10465 10468 10471 10473 10474 10473 10474 10477 10478 10478 10480 10480 10480 10481 10481 10482 10481 10481 10481 10479 10478 10476 10472 10472 10473 10470 10469 10471 10467 10462 10460 10458 10455 10454 10451 10448 10446 10442 10439 10436 10433 10429 10425 10421 10417 10413 10408 10403 10398 10393 10388 10383 10377 10370 10363 10357 10350 10343 10335 10327 10318 10311 10305
10407 10411 10413 10410 10412 10417 10419 10420 10423 10429 10433 10435 10442 10449 10449 10450 10451 10449 10449 10452 10455 10457 10459 10460 10457 10456 10459 10463 10465 10466 10464 10464 10469 10471 10471 10473 10473 10474 10476 10476 10476 10476 10476 10476 10475 10474 10473 10469 10468 10469 10465 10463 10467 10466 10461 10458 10455 10452 10450 10448 10446 10444 10441 10438 10436 10432 10429 10426 10422 10418 10414 10409 10405 10401 10396 10391 10386 10380 10374 10367 10360 10354 10348 10341 10334 10326 10318 10311
10390 10394 10394 10393 10399 10404 10405 10406 10410 10415 10422 10429 10436 10438 10436 10436 10438 10435 10436 10442 10446 10449 10451 10449 10446 10448 10451 10455 10457 10455 10452 10457 10462 10462 10463 10466 10466 10467 10470 10470 10470 10471 10471 10471 10471 10469 10469 10467 10465 10466 10462 10458 10461 10463 10459 10455 10454 10451 10448 10446 10443 10442 10439 10436 10434 10432 10429 10426 10423 10419 10415 10411 10406 10403 10399 10394 10390 10384 10378 10371 10364 10358 10353 10347 10341 10334 10326 10319
10374 10378 10377 10376 10381 10387 10389 10392 10395 10402 10414 10423 10424 10422 10423 10424 10424 10424 10427 10433 10436 10438 10438 10437 10437 10441 10444 10447 10448 10443 10441 10449 10454 10453 10454 10458 10459 10460 10463 10464 10464 10465 10465 10466 10466 10465 10464 10463 10462 10462 10460 10454 10454 10458 10457 10453 10451 10449 10447 10445 10442 10439 10437 10435 10432 10430 10428 10426 10423 10420 10416 10412 10408 10404 10400 10396 10392 10387 10381 10375 10369 10363 10358 10353 10348 10342 10335 10328